Location: B?ez�
(49.4891°N, 12.8807°E)
Time: 05:46:42
(UTC+00:00)

Daily predictions for brighter satellites

Satellite Brightness Start Highest point End
(mag) Time Altitude Azimuth Time Altitude Azimuth Time Altitude Azimuth
STARLINK-1267 4.2 00:04:13 30° SSE 00:04:27 31° SE 00:07:44 10° E
STARLINK-1274 4.2 00:04:34 30° SE 00:04:37 30° SE 00:07:45 10° E
STARLINK-1390 4.4 00:00:46 10° W 00:04:42 52° N 00:08:38 10° ENE
Cosmos 2084 Rocket 3.4 00:00:33 10° NW 00:05:01 75° SW 00:08:10 19° SSE
Cosmos 2322 Rocket 4.4 00:03:28 10° SE 00:06:27 15° E 00:09:26 10° ENE
STARLINK-1365 4.4 00:04:41 10° W 00:08:39 51° N 00:12:37 10° ENE
STARLINK-41 3.4 00:09:05 39° SE 00:09:05 39° SE 00:11:59 10° ENE
Cosmos 1898 Rocket 4.2 00:04:36 10° NW 00:09:31 38° WSW 00:11:42 26° SSW
ERBS 3.4 00:06:38 10° WNW 00:08:52 27° WSW 00:08:52 27° WSW
STARLINK-62 4.4 00:10:19 23° SE 00:10:19 23° SE 00:12:28 10° E
USA 229 DEB 4.3 00:03:19 10° NW 00:10:28 65° NE 00:17:59 10° ESE
USA 229 4.3 00:03:26 10° NW 00:10:34 64° NE 00:18:05 10° ESE
STARLINK-1207 4.1 00:10:22 33° SSE 00:10:49 34° SE 00:14:12 10° ENE
NOSS 3-1 (C) 4.3 00:04:40 10° NW 00:11:57 71° NE 00:20:25 10° SE
Cosmos 1400 Rocket 3.4 00:08:32 10° N 00:12:38 57° ENE 00:15:18 20° SSE
Cosmos 2278 3.8 00:09:40 27° SSW 00:12:50 70° ESE 00:18:29 10° NNE
STARLINK-1266 4.0 00:13:28 33° SSE 00:14:02 36° SE 00:17:28 10° ENE
Cosmos 1697 Rocket 2.7 00:10:39 25° SW 00:14:07 80° WNW 00:19:50 10° NNE
ATLAS CENTAUR R/B 3.3 00:11:43 10° W 00:12:31 17° W 00:12:31 17° W
STARLINK-1284 4.0 00:16:33 34° S 00:17:14 38° SE 00:20:43 10° ENE
Cosmos 372 Rocket 3.9 00:13:06 10° NNW 00:18:17 89° WSW 00:22:10 18° SSE
Cosmos 1953 Rocket 3.8 00:16:05 26° SSE 00:18:26 62° E 00:22:47 10° NNE
GP-B 3.7 00:14:09 10° N 00:18:31 51° E 00:21:21 20° SSE
Cosmos-2242 3.0 00:15:41 10° NNW 00:19:57 70° W 00:21:58 30° S
STARLINK-1258 3.9 00:19:41 34° S 00:20:29 39° SE 00:24:00 10° ENE
STARLINK 1040 2.6 00:20:41 42° W 00:21:20 67° NNW 00:23:54 10° ENE
Cosmos 2221 4.2 00:18:39 10° N 00:22:33 31° ENE 00:26:26 10° SE
STARLINK-1444 2.6 00:20:39 10° WNW 00:22:46 56° NNE 00:24:59 10° E
Cosmos 2150 Rocket 4.1 00:17:37 10° NNW 00:22:49 78° ENE 00:27:26 13° SSE
Cosmos 2227 Rocket 3.5 00:18:42 10° NW 00:23:08 24° WSW 00:25:05 20° SW
STARLINK-1452 2.6 00:21:16 10° WNW 00:23:23 56° NNE 00:25:36 10° E
STARLINK-55 2.9 00:22:38 43° SSW 00:23:24 61° SSE 00:26:35 10° ENE
STARLINK-1292 3.8 00:22:49 34° S 00:23:44 42° SE 00:27:16 10° ENE
STARLINK-1450 2.5 00:22:33 10° WNW 00:24:36 57° NNE 00:26:47 10° E
STARLINK-1436 (VISORSAT) 2.5 00:22:33 10° WNW 00:24:38 57° NNE 00:26:51 10° E
STARLINK-1392 2.5 00:22:39 10° WNW 00:24:44 57° NNE 00:26:54 10° E
STARLINK-1398 2.5 00:22:37 10° WNW 00:24:44 57° NNE 00:26:57 10° E
STARLINK-1399 2.5 00:22:41 10° WNW 00:24:45 57° NNE 00:26:55 10° E
STARLINK-1415 2.5 00:22:41 10° WNW 00:24:45 57° NNE 00:26:55 10° E
STARLINK-1414 2.5 00:22:39 10° WNW 00:24:45 57° NNE 00:26:57 10° E
STARLINK-1394 2.5 00:22:41 10° WNW 00:24:46 57° NNE 00:26:56 10° E
STARLINK-1395 2.5 00:22:41 10° WNW 00:24:46 57° NNE 00:26:56 10° E
STARLINK-1393 2.5 00:22:42 10° WNW 00:24:46 57° NNE 00:26:56 10° E
STARLINK-1416 2.5 00:22:39 10° WNW 00:24:46 57° NNE 00:26:58 10° E
STARLINK-1396 2.5 00:22:42 10° WNW 00:24:47 57° NNE 00:26:57 10° E
STARLINK-1397 2.5 00:22:42 10° WNW 00:24:47 57° NNE 00:26:57 10° E
STARLINK-1401 2.5 00:22:43 10° WNW 00:24:47 57° NNE 00:26:57 10° E
STARLINK-1408 2.5 00:22:41 10° WNW 00:24:47 57° NNE 00:26:59 10° E
STARLINK-1404 2.5 00:22:43 10° WNW 00:24:47 57° NNE 00:26:58 10° E
STARLINK-1419 2.5 00:22:41 10° WNW 00:24:48 57° NNE 00:27:00 10° E
STARLINK-1453 2.5 00:22:44 10° WNW 00:24:48 57° NNE 00:26:58 10° E
STARLINK-1402 2.5 00:22:45 10° WNW 00:24:49 57° NNE 00:26:59 10° E
STARLINK-1417 2.5 00:22:45 10° WNW 00:24:49 57° NNE 00:26:59 10° E
STARLINK-1338 4.4 00:20:58 10° WNW 00:24:49 49° N 00:28:41 10° ENE
STARLINK-1413 2.5 00:22:46 10° WNW 00:24:50 57° NNE 00:27:00 10° E
STARLINK-1420 2.5 00:22:43 10° WNW 00:24:50 58° NNE 00:27:02 10° E
STARLINK-1406 2.5 00:22:46 10° WNW 00:24:50 57° NNE 00:27:00 10° E
STARLINK-1422 2.5 00:22:45 10° WNW 00:24:51 58° NNE 00:27:04 10° E
STARLINK-1460 2.5 00:22:45 10° WNW 00:24:52 58° NNE 00:27:04 10° E
STARLINK-1458 2.5 00:22:45 10° WNW 00:24:52 58° NNE 00:27:04 10° E
STARLINK-1440 2.5 00:22:48 10° WNW 00:24:52 57° NNE 00:27:02 10° E
STARLINK-1445 2.5 00:22:48 10° WNW 00:24:52 57° NNE 00:27:03 10° E
STARLINK-1443 2.5 00:22:49 10° WNW 00:24:53 57° NNE 00:27:04 10° E
STARLINK-1454 2.5 00:22:50 10° WNW 00:24:54 57° NNE 00:27:04 10° E
STARLINK-1437 2.5 00:22:47 10° WNW 00:24:54 58° NNE 00:27:06 10° E
STARLINK-1457 2.5 00:22:50 10° WNW 00:24:54 57° NNE 00:27:05 10° E
STARLINK-1446 2.5 00:22:49 10° WNW 00:24:55 58° NNE 00:27:08 10° E
STARLINK-1456 2.5 00:22:51 10° WNW 00:24:55 57° NNE 00:27:05 10° E
STARLINK-1451 2.5 00:22:50 10° WNW 00:24:55 57° NNE 00:27:05 10° E
STARLINK-1442 2.5 00:22:52 10° WNW 00:24:56 57° NNE 00:27:07 10° E
STARLINK-1447 2.5 00:22:51 10° WNW 00:24:58 58° NNE 00:27:11 10° E
STARLINK-1455 2.5 00:22:52 10° WNW 00:24:58 58° NNE 00:27:11 10° E
STARLINK-1405 2.5 00:22:54 10° WNW 00:24:58 57° NNE 00:27:09 10° E
STARLINK-1421 2.5 00:22:54 10° WNW 00:24:58 57° NNE 00:27:09 10° E
Resurs 1-4 Rocket 2.9 00:19:55 10° NNE 00:24:58 43° E 00:28:43 17° SSE
STARLINK-1423 2.5 00:22:53 10° WNW 00:24:58 58° NNE 00:27:11 10° E
STARLINK-1400 2.5 00:22:55 10° WNW 00:24:58 57° NNE 00:27:09 10° E
STARLINK-1407 2.5 00:22:55 10° WNW 00:24:59 57° NNE 00:27:10 10° E
STARLINK-1439 2.5 00:22:56 10° WNW 00:24:59 57° NNE 00:27:10 10° E
STARLINK-1410 2.5 00:22:55 10° WNW 00:24:59 57° NNE 00:27:10 10° E
STARLINK-1441 2.5 00:22:52 10° WNW 00:24:59 58° NNE 00:27:12 10° E
STARLINK-1448 2.5 00:22:53 10° WNW 00:25:01 58° NNE 00:27:13 10° E
STARLINK-1449 2.5 00:22:53 10° WNW 00:25:01 58° NNE 00:27:13 10° E
STARLINK-1351 2.5 00:22:57 10° WNW 00:25:01 57° NNE 00:27:11 10° E
STARLINK-1409 2.5 00:22:56 10° WNW 00:25:01 57° NNE 00:27:11 10° E
STARLINK-1370 2.5 00:22:57 10° WNW 00:25:01 57° NNE 00:27:12 10° E
STARLINK-1418 2.5 00:22:57 10° WNW 00:25:02 57° NNE 00:27:12 10° E
STARLINK-1434 2.5 00:22:57 10° WNW 00:25:02 57° NNE 00:27:12 10° E
STARLINK-1403 2.5 00:22:58 10° WNW 00:25:03 57° NNE 00:27:13 10° E
STARLINK-1433 2.5 00:22:59 10° WNW 00:25:03 57° NNE 00:27:14 10° E
STARLINK-1411 2.5 00:23:00 10° WNW 00:25:05 57° NNE 00:27:15 10° E
STARLINK-1438 2.5 00:23:01 10° WNW 00:25:05 57° NNE 00:27:15 10° E
STARLINK-1412 2.5 00:23:01 10° WNW 00:25:08 58° NNE 00:27:21 10° E
STARLINK-1301 3.8 00:25:24 34° SSW 00:26:34 46° SSE 00:30:16 10° ENE
Cosmos 2227 4.4 00:22:09 10° NNW 00:27:56 77° ENE 00:33:43 10° SSE
Cosmos 1814 Rocket 4.0 00:26:04 25° SSW 00:29:13 85° ESE 00:34:33 10° NNE
STARLINK-1283 3.8 00:27:36 31° SSW 00:29:13 51° SSE 00:33:12 10° ENE
IRAS Rocket 4.3 00:26:36 23° S 00:30:06 62° WSW 00:35:36 10° NNW
STARLINK-1289 3.7 00:29:04 33° SSW 00:30:13 46° SSE 00:33:49 10° ENE
Cosmos 2074 Rocket 4.4 00:25:39 17° SSE 00:30:26 58° E 00:36:36 10° NNE
STARLINK-1371 4.5 00:29:07 10° WNW 00:32:59 49° N 00:36:51 10° ENE
STARLINK-29 3.5 00:29:52 10° WNW 00:33:03 59° NNE 00:36:12 10° E
STARLINK-1303 3.6 00:32:15 33° SSW 00:33:31 48° SSE 00:37:08 10° ENE
STARLINK-28 2.8 00:33:31 33° SW 00:34:47 77° SSE 00:38:00 10° ENE
STARLINK-26 3.0 00:33:53 31° SW 00:35:24 73° SSE 00:38:50 10° ENE
STARLINK-1312 3.6 00:35:25 32° SSW 00:36:50 51° SSE 00:40:28 10° ENE
STARLINK-1341 4.5 00:33:14 10° WNW 00:37:06 49° N 00:40:58 10° ENE
SAR-Lupe-3 4.5 00:34:56 10° NNE 00:38:30 84° E 00:40:11 30° S
STARLINK-48 4.4 00:38:20 26° S 00:39:30 32° SE 00:42:59 10° ENE
Cosmos 1125 Rocket 3.8 00:34:21 10° NNW 00:39:33 69° ENE 00:44:44 10° SSE
UNK 3.8 00:36:35 16° SSE 00:40:15 79° ENE 00:44:51 10° NNW
SL-16 R/B 3.4 00:36:40 14° SSE 00:40:43 32° ESE 00:45:42 10° NE
Cosmos 841 Rocket 3.6 00:37:44 23° SW 00:41:03 68° WNW 00:46:16 10° NNE
STARLINK-1374 4.5 00:37:21 10° WNW 00:41:13 49° N 00:45:05 10° ENE
GEOS 3 Rocket 3.8 00:37:13 10° SE 00:42:24 76° NE 00:47:44 10° NW
Cosmos 1570 Rocket 4.3 00:39:10 21° SW 00:42:37 60° WNW 00:47:52 10° NNE
Helios 1B rocket 3.9 00:39:38 10° N 00:43:10 27° WNW 00:45:37 16° WSW
STARLINK-1339 4.5 00:41:30 10° WNW 00:45:22 49° N 00:49:14 10° E
CZ-4C R/B 3.5 00:42:54 20° S 00:45:57 80° WSW 00:50:25 10° NNW
Cosmos 1315 Rocket 3.6 00:43:03 10° N 00:46:54 49° ENE 00:50:43 10° SSE
STARLINK-80 3.4 00:45:26 26° SW 00:47:22 62° SSE 00:51:08 10° ENE
BREEZE M DEB (TANK) 4.2 00:49:07 20° SSE 00:49:07 20° SSE 00:51:26 10° SE
Cosmos 2298 Rocket 4.1 00:43:58 10° NNW 00:49:13 62° WSW 00:53:21 16° S
STARLINK-33 2.7 00:47:57 27° WSW 00:49:31 86° SSE 00:52:40 10° ENE
STARLINK-1377 4.4 00:45:40 10° WNW 00:49:33 50° N 00:53:24 10° E
CZ-4C R/B 3.0 00:44:45 11° WSW 00:49:38 50° NW 00:55:48 10° NE
STARLINK-1320 4.1 00:49:27 10° WNW 00:52:28 44° N 00:55:30 10° E
CZ-2D R/B 2.2 00:47:25 10° NNE 00:52:39 70° ESE 00:56:32 18° S
STARLINK-1322 4.1 00:49:47 10° WNW 00:52:49 44° N 00:55:51 10° E
STARLINK-1324 4.1 00:50:08 10° WNW 00:53:09 44° N 00:56:11 10° E
STARLINK-1294 4.1 00:50:25 10° WNW 00:53:27 45° N 00:56:29 10° E
STARLINK-1353 4.4 00:49:50 10° WNW 00:53:42 50° N 00:57:35 10° E
STARLINK-1261 4.1 00:50:48 10° WNW 00:53:50 45° N 00:56:51 10° E
STARLINK-1325 4.1 00:51:09 10° WNW 00:54:10 45° N 00:57:12 10° E
Cosmos 1825 Rocket 4.3 00:51:55 21° SW 00:54:21 40° WNW 00:58:29 10° N
Cosmos 2184 Rocket 4.0 00:49:34 18° S 00:54:22 81° E 01:00:34 10° N
STARLINK-1333 4.1 00:51:30 10° WNW 00:54:32 45° N 00:57:33 10° E
STARLINK-1334 4.1 00:51:49 10° WNW 00:54:51 45° N 00:57:52 10° E
STARLINK-1326 4.1 00:52:10 10° WNW 00:55:12 45° N 00:58:13 10° E
STARLINK-1323 4.1 00:52:30 10° WNW 00:55:32 45° N 00:58:33 10° E
STARLINK-1349 4.0 00:52:49 10° WNW 00:55:50 45° N 00:58:51 10° E
STARLINK-1336 4.0 00:53:09 10° WNW 00:56:11 45° N 00:59:13 10° E
STARLINK-1331 4.0 00:53:31 10° WNW 00:56:33 45° N 00:59:35 10° E
STARLINK-1344 4.0 00:53:50 10° WNW 00:56:52 45° N 00:59:54 10° E
STARLINK-1343 4.0 00:54:11 10° WNW 00:57:13 45° N 01:00:15 10° E
STARLINK-1346 4.0 00:54:29 10° WNW 00:57:33 46° N 01:00:37 10° E
STARLINK-1375 4.4 00:54:01 10° WNW 00:57:54 51° N 01:01:47 10° E
STARLINK-1328 4.0 00:54:53 10° WNW 00:57:55 45° N 01:00:57 10° E
STARLINK-1354 4.0 00:55:12 10° WNW 00:58:14 45° N 01:01:16 10° E
STARLINK-1347 4.0 00:55:31 10° WNW 00:58:33 46° N 01:01:35 10° E
STARLINK-1357 4.0 00:55:54 10° WNW 00:58:56 46° N 01:01:58 10° E
STARLINK-1335 4.0 00:56:13 10° WNW 00:59:15 46° N 01:02:17 10° E
STARLINK-1327 4.0 00:56:34 10° WNW 00:59:36 46° N 01:02:38 10° E
STARLINK-1340 4.0 00:56:55 10° WNW 00:59:57 46° N 01:02:59 10° E
STARLINK-1356 4.0 00:57:15 10° WNW 01:00:17 46° N 01:03:19 10° E
STARLINK-1345 4.0 00:57:35 10° WNW 01:00:37 46° N 01:03:39 10° E
STARLINK-1355 4.0 00:57:55 10° WNW 01:00:56 46° N 01:03:58 10° E
STARLINK-1321 4.0 00:58:14 10° WNW 01:01:16 46° N 01:04:18 10° E
STARLINK-1358 4.0 00:58:36 10° WNW 01:01:39 46° N 01:04:42 10° E
STARLINK-1332 4.0 00:58:55 10° WNW 01:01:57 46° N 01:04:59 10° E
STARLINK-1350 4.4 00:58:11 10° WNW 01:02:04 51° N 01:05:57 10° E
STARLINK-1348 4.0 00:59:15 10° WNW 01:02:18 46° N 01:05:19 10° E
STARLINK-1330 4.0 00:59:37 10° WNW 01:02:38 47° N 01:05:41 10° E
STARLINK-1297 3.2 01:00:39 22° SW 01:02:46 71° SSE 01:06:20 10° ENE
STARLINK-1363 4.0 00:59:55 10° WNW 01:02:57 47° N 01:06:00 10° E
Lacrosse 4 Rocket 3.5 01:01:21 10° W 01:02:59 12° WSW 01:03:15 12° WSW
STARLINK-1337 4.0 01:00:16 10° WNW 01:03:19 47° N 01:06:21 10° E
STARLINK-66 3.0 01:01:11 18° WSW 01:03:27 79° NNW 01:06:40 10° ENE
STARLINK-1342 4.0 01:00:38 10° WNW 01:03:41 47° N 01:06:43 10° E
STARLINK-1364 4.0 01:00:58 10° WNW 01:04:00 47° N 01:07:03 10° E
NOSS 2-1 (E) 4.1 01:02:28 19° S 01:04:14 32° ESE 01:07:31 10° ENE
STARLINK-1376 4.0 01:01:18 10° WNW 01:04:20 47° N 01:07:22 10° E
Cosmos 2360 Rocket 4.0 01:00:16 10° SSE 01:04:31 23° ESE 01:08:48 10° NE
STARLINK-1360 4.0 01:01:38 10° WNW 01:04:41 47° N 01:07:44 10° E
STARLINK-1361 3.9 01:01:59 10° WNW 01:05:02 47° N 01:08:04 10° E
STARLINK-1367 3.9 01:02:16 10° WNW 01:05:20 48° N 01:08:25 10° E
STARLINK-1366 3.9 01:02:39 10° WNW 01:05:42 47° N 01:08:44 10° E
STARLINK-1268 2.7 01:04:05 23° WSW 01:05:52 82° SSE 01:08:58 10° ENE
STARLINK-1352 4.4 01:02:25 10° WNW 01:06:18 52° N 01:10:11 10° E
STARLINK-52 3.0 01:05:18 10° WNW 01:08:32 81° NNE 01:11:45 10° ESE
STARLINK-58 2.9 01:07:08 24° SW 01:08:50 66° SSE 01:12:00 10° ENE
STARLINK-1316 2.8 01:07:38 21° WSW 01:09:35 86° SSE 01:12:43 10° ENE
STARLINK-1257 2.8 01:08:29 20° WSW 01:10:29 87° SSE 01:13:38 10° ENE
STARLINK-1368 4.4 01:06:40 10° WNW 01:10:34 53° N 01:14:27 10° E
STARLINK-1256 2.8 01:09:23 20° WSW 01:11:24 88° SSE 01:14:32 10° ENE
Cosmos 1980 Rocket 2.6 01:07:19 16° SW 01:11:43 56° NW 01:17:18 10° NNE
STARLINK-1213 2.8 01:10:16 20° WSW 01:12:19 89° S 01:15:27 10° ENE
STARLINK-1263 2.8 01:11:07 19° WSW 01:13:13 90° E 01:16:20 10° ENE
STARLINK-1259 2.8 01:12:00 19° WSW 01:14:08 89° N 01:17:16 10° ENE
STARLINK-1265 2.8 01:12:24 18° WSW 01:14:33 89° NNW 01:17:43 10° ENE
STARLINK-75 3.1 01:12:04 15° WSW 01:14:40 74° NNW 01:17:54 10° ENE
STARLINK-1369 4.3 01:10:55 10° WNW 01:14:49 54° N 01:18:43 10° E
STARLINK-1285 2.8 01:12:51 18° WSW 01:15:01 88° NNW 01:18:10 10° ENE
Cosmos 1455 4.4 01:14:02 10° WNW 01:15:20 12° W 01:16:34 10° WSW
Meteor 1-11 4.5 01:11:52 18° SSW 01:16:01 57° WNW 01:21:33 10° N
CBERS-1 4.5 01:11:14 10° NNE 01:16:18 58° E 01:21:04 11° S
STARLINK-1296 2.8 01:14:36 18° WSW 01:16:49 86° NNW 01:19:58 10° ENE
USA 215 4.3 01:13:42 16° SSW 01:16:58 22° SW 01:21:55 10° WNW
STARLINK-1260 2.8 01:15:26 17° WSW 01:17:42 85° NNW 01:20:50 10° ENE
SL-08 R/B 4.2 01:13:37 10° SE 01:18:03 48° ENE 01:22:30 10° N
STARLINK-1317 3.4 01:15:01 15° WSW 01:18:10 90° SSE 01:22:03 10° ENE
STARLINK-1307 3.2 01:15:22 16° WSW 01:18:13 87° SSE 01:21:54 10° ENE
STARLINK-1318 2.8 01:16:19 17° WSW 01:18:37 84° NNW 01:21:46 10° ENE
CRYOSAT 2 4.4 01:13:59 10° N 01:18:55 89° W 01:23:12 14° S
STARLINK-1372 4.3 01:15:10 10° WNW 01:19:05 55° N 01:22:59 10° E
STARLINK-1275 2.9 01:17:12 17° WSW 01:19:32 83° NNW 01:22:40 10° ENE
STARLINK-1309 2.9 01:18:04 16° WSW 01:20:26 83° NNW 01:23:34 10° ENE
STARLINK-1282 2.9 01:18:56 16° WSW 01:21:19 82° NNW 01:24:28 10° ENE
STARLINK-1290 3.2 01:18:35 15° WSW 01:21:34 90° SSE 01:25:15 10° ENE
SL-4 R/B 2.4 01:17:00 10° WNW 01:21:44 53° SSW 01:26:16 10° SE
STARLINK-1313 3.0 01:19:53 14° WSW 01:22:27 75° NNW 01:25:35 10° ENE
STARLINK-1272 3.2 01:19:57 15° WSW 01:22:51 87° NNW 01:26:25 10° ENE
STARLINK-22 3.0 01:20:24 14° WSW 01:23:04 77° NNW 01:26:17 10° ENE
BREEZE-M DEB (TANK) 1.8 01:22:09 24° SW 01:23:08 56° SSE 01:26:10 10° E
STARLINK-1378 4.3 01:19:24 10° WNW 01:23:19 56° N 01:27:15 10° E
STARLINK-1279 3.0 01:20:47 14° WSW 01:23:23 74° NNW 01:26:31 10° ENE
FALCON 9 DEB 3.3 01:20:11 10° WNW 01:23:38 75° NNE 01:27:07 10° ESE
STARLINK-1298 2.9 01:21:30 15° WSW 01:24:01 79° NNW 01:27:08 10° ENE
STARLINK-1287 4.4 01:21:49 18° SSW 01:24:24 37° SE 01:28:14 10° ENE
STARLINK-1293 2.9 01:22:22 14° WSW 01:24:54 78° NNW 01:28:03 10° ENE
STARLINK-1299 4.2 01:23:39 18° SSW 01:26:31 44° SE 01:30:35 10° ENE
STARLINK-1255 2.9 01:24:08 14° WSW 01:26:44 77° NNW 01:29:53 10° ENE
Cosmos 2263 Rocket 2.5 01:22:07 10° NW 01:27:29 47° WSW 01:32:46 10° S
STARLINK-1379 4.2 01:23:43 10° WNW 01:27:39 57° NNE 01:31:34 10° E
Cosmos 2154 Rocket 4.0 01:22:43 12° S 01:28:30 88° W 01:34:46 10° N
SL-16 R/B 3.0 01:24:14 13° SSW 01:29:25 44° W 01:35:19 10° NNW
STARLINK-1329 4.2 01:27:03 10° WNW 01:31:00 58° NNE 01:34:56 10° E
H-2A R/B 3.9 01:27:26 10° SE 01:31:27 34° ENE 01:35:32 10° N
Meteor 2-17 Rocket 4.5 01:26:22 14° SSW 01:31:48 74° WNW 01:37:56 10° N
Cosmos 1076 Rocket 3.8 01:28:01 11° S 01:32:11 69° E 01:36:33 10° NNE
STARLINK-1302 4.2 01:31:22 16° SSW 01:34:19 42° SE 01:38:15 10° ENE
STARLINK-1362 4.1 01:31:23 10° WNW 01:35:21 60° NNE 01:39:19 10° E
STARLINK-1291 3.4 01:32:11 11° WSW 01:35:45 77° NNW 01:39:28 10° ENE
STARLINK-43 4.2 01:32:22 10° W 01:35:58 50° N 01:39:35 10° ENE
ADEOS II 2.4 01:30:47 10° NNE 01:36:02 67° ESE 01:41:16 10° S
Cosmos 1869 3.5 01:33:08 10° NNW 01:36:54 51° W 01:40:18 12° S
STARLINK-60 3.6 01:34:02 10° WNW 01:36:57 33° SW 01:39:52 10° SSE
Cosmos 2151 4.5 01:33:15 10° SSE 01:37:07 34° E 01:41:02 10° NNE
NPP 3.9 01:31:49 10° N 01:37:09 61° WNW 01:41:55 13° SSW
STARLINK-1311 3.2 01:34:31 10° W 01:37:26 60° NNW 01:40:23 10° ENE
STARLINK-42 3.5 01:35:04 10° W 01:38:09 56° NNW 01:41:17 10° ENE
STARLINK-1029 2.8 01:35:36 14° WSW 01:38:11 83° SSE 01:41:21 10° ENE
STARLINK-1264 3.4 01:35:15 10° WSW 01:38:56 75° NNW 01:42:38 10° ENE
Cosmos 1241 Rocket 4.5 01:33:35 14° SW 01:39:01 89° SE 01:45:19 10° NE
STARLINK-1273 4.1 01:36:09 15° SW 01:39:16 45° SE 01:43:15 10° ENE
STARLINK-1373 4.1 01:35:45 10° WNW 01:39:43 61° NNE 01:43:42 10° E
Cosmos 1892 2.7 01:37:00 12° S 01:40:29 84° E 01:44:18 10° N
CZ-4B R/B 3.7 01:35:25 10° N 01:40:37 67° WNW 01:45:27 12° SSW
IDEFIX/ARIANE 42P 4.4 01:36:44 10° NE 01:41:13 28° E 01:45:40 10° SSE
STARLINK-1274 3.4 01:38:12 10° WSW 01:41:45 71° NNW 01:45:18 10° ENE
STARLINK-1267 3.5 01:38:27 10° WSW 01:42:08 72° NNW 01:45:50 10° ENE
IRIDIUM 106 4.3 01:37:08 10° S 01:42:21 87° W 01:47:37 10° N
STARLINK-34 2.9 01:40:11 11° WSW 01:43:04 76° NNW 01:46:09 10° ENE
ERS-2 3.2 01:39:56 10° SE 01:43:26 46° ENE 01:46:59 10° N
STARLINK-1390 4.0 01:40:07 10° WNW 01:44:07 63° NNE 01:48:05 10° E
STARLINK-1288 4.1 01:40:56 14° SW 01:44:14 49° SSE 01:48:14 10° ENE
STARLINK-41 3.5 01:41:35 10° W 01:44:38 54° NNW 01:47:42 10° ENE
STARLINK-62 3.0 01:42:25 11° WSW 01:45:27 74° NNW 01:48:35 10° ENE
IRS-1D 3.6 01:40:22 10° NNE 01:45:41 83° WNW 01:50:50 10° SSW
IRS-1C 4.4 01:41:49 10° NNE 01:47:10 69° ESE 01:52:28 10° S
STARLINK-1365 4.0 01:44:10 10° WNW 01:48:12 66° NNE 01:52:13 10° E
STARLINK-1207 3.6 01:44:53 10° WSW 01:48:35 68° NNW 01:52:17 10° ENE
STARLINK-1308 4.0 01:45:44 13° SW 01:49:13 53° SSE 01:53:16 10° ENE
Cosmos 2322 Rocket 2.2 01:44:19 12° SSW 01:49:36 84° ESE 01:55:16 10° NNE
BREEZE-M R/B 2.2 01:47:16 10° W 01:51:21 84° S 01:53:56 10° ESE
In-Cosmos 22 Rocket 4.2 01:46:07 10° SSW 01:51:44 79° WNW 01:57:14 10° N
STARLINK-1266 3.6 01:48:08 10° W 01:51:50 66° NNW 01:55:32 10° ENE
Nadezhda 3 Rocket 4.3 01:45:51 10° NNW 01:51:58 53° W 01:58:05 10° SSW
STARLINK-64 3.2 01:50:05 11° WSW 01:53:26 78° SSE 01:57:03 10° ENE
ARIANE 5 R/B 3.0 01:49:09 10° NNE 01:54:08 59° ESE 01:59:03 10° S
STARLINK-1284 3.7 01:51:23 10° W 01:55:05 65° NNW 01:58:47 10° ENE
STARLINK 1040 4.1 01:53:08 10° WNW 01:55:32 34° N 01:57:55 10° ENE
STARLINK-1444 3.5 01:54:38 10° W 01:56:23 20° SW 01:58:12 10° SSE
STARLINK-61 4.0 01:53:22 12° SW 01:56:44 45° SE 02:00:30 10° ENE
STARLINK-1452 3.5 01:55:16 10° W 01:57:00 20° SW 01:58:48 10° SSE
STARLINK-1450 3.5 01:56:33 10° W 01:58:12 19° SW 01:59:54 10° SSE
STARLINK-1436 (VISORSAT) 3.5 01:56:35 10° W 01:58:17 19° SW 02:00:01 10° SSE
STARLINK-1392 3.5 01:56:40 10° W 01:58:19 19° SW 02:00:02 10° SSE
STARLINK-1399 3.5 01:56:41 10° W 01:58:20 19° SW 02:00:03 10° SSE
STARLINK-1415 3.5 01:56:41 10° W 01:58:20 18° SW 02:00:03 10° SSE
STARLINK-1258 3.7 01:54:39 10° W 01:58:21 63° NNW 02:02:03 10° ENE
STARLINK-1394 3.5 01:56:41 10° W 01:58:21 19° SW 02:00:04 10° SSE
STARLINK-1414 3.5 01:56:39 10° W 01:58:21 19° SW 02:00:06 10° SSE
STARLINK-1395 3.5 01:56:42 10° W 01:58:21 19° SW 02:00:04 10° SSE
STARLINK-1398 3.5 01:56:39 10° W 01:58:21 19° SW 02:00:07 10° SSE
STARLINK-1393 3.5 01:56:42 10° W 01:58:21 19° SW 02:00:04 10° SSE
STARLINK-1416 3.5 01:56:40 10° W 01:58:22 19° SW 02:00:07 10° SSE
STARLINK-1396 3.5 01:56:42 10° W 01:58:22 18° SW 02:00:05 10° SSE
STARLINK-1397 3.5 01:56:42 10° W 01:58:22 18° SW 02:00:05 10° SSE
STARLINK-1401 3.5 01:56:43 10° W 01:58:22 18° SW 02:00:05 10° SSE
STARLINK-1404 3.5 01:56:43 10° W 01:58:23 18° SW 02:00:06 10° SSE
STARLINK-1408 3.5 01:56:41 10° W 01:58:23 19° SW 02:00:08 10° SSE
STARLINK-1453 3.5 01:56:44 10° W 01:58:23 18° SW 02:00:06 10° SSE
STARLINK-1402 3.5 01:56:45 10° W 01:58:24 18° SW 02:00:07 10° SSE
STARLINK-1417 3.5 01:56:45 10° W 01:58:24 18° SW 02:00:07 10° SSE
STARLINK-1419 3.5 01:56:42 10° W 01:58:24 19° SW 02:00:10 10° SSE
STARLINK-1413 3.5 01:56:46 10° W 01:58:25 18° SW 02:00:08 10° SSE
STARLINK-1406 3.5 01:56:46 10° W 01:58:26 18° SW 02:00:08 10° SSE
STARLINK-1420 3.5 01:56:44 10° W 01:58:26 19° SW 02:00:12 10° SSE
STARLINK-1440 3.5 01:56:48 10° W 01:58:28 18° SW 02:00:10 10° SSE
STARLINK-1422 3.5 01:56:46 10° W 01:58:28 19° SW 02:00:13 10° SSE
STARLINK-1445 3.5 01:56:49 10° W 01:58:28 18° SW 02:00:10 10° SSE
STARLINK-1460 3.5 01:56:47 10° W 01:58:28 19° SW 02:00:14 10° SSE
STARLINK-1458 3.5 01:56:47 10° W 01:58:29 19° SW 02:00:14 10° SSE
STARLINK-1443 3.5 01:56:50 10° W 01:58:29 18° SW 02:00:11 10° SSE
STARLINK-1454 3.5 01:56:51 10° W 01:58:29 18° SW 02:00:12 10° SSE
STARLINK-1457 3.5 01:56:51 10° W 01:58:30 18° SW 02:00:13 10° SSE
STARLINK-1456 3.5 01:56:52 10° W 01:58:30 18° SW 02:00:13 10° SSE
STARLINK-1451 3.5 01:56:51 10° W 01:58:31 18° SW 02:00:14 10° SSE
STARLINK-1437 3.5 01:56:50 10° W 01:58:32 19° SW 02:00:17 10° SSE
STARLINK-1442 3.5 01:56:53 10° W 01:58:32 18° SW 02:00:15 10° SSE
STARLINK-1446 3.5 01:56:50 10° W 01:58:33 19° SW 02:00:18 10° SSE
STARLINK-1405 3.5 01:56:55 10° W 01:58:34 18° SW 02:00:17 10° SSE
STARLINK-1421 3.5 01:56:55 10° W 01:58:34 18° SW 02:00:17 10° SSE
STARLINK-1400 3.5 01:56:56 10° W 01:58:35 18° SW 02:00:17 10° SSE
STARLINK-1410 3.5 01:56:56 10° W 01:58:35 18° SW 02:00:17 10° SSE
STARLINK-1423 3.5 01:56:53 10° W 01:58:35 19° SW 02:00:21 10° SSE
STARLINK-1447 3.5 01:56:53 10° W 01:58:35 19° SW 02:00:21 10° SSE
STARLINK-1407 3.5 01:56:56 10° W 01:58:36 18° SW 02:00:18 10° SSE
STARLINK-1455 3.5 01:56:53 10° W 01:58:36 19° SW 02:00:21 10° SSE
STARLINK-1439 3.5 01:56:57 10° W 01:58:36 18° SW 02:00:18 10° SSE
STARLINK-1409 3.5 01:56:57 10° W 01:58:36 18° SW 02:00:19 10° SSE
STARLINK-1441 3.5 01:56:55 10° W 01:58:37 19° SW 02:00:22 10° SSE
STARLINK-1351 3.5 01:56:59 10° W 01:58:37 18° SW 02:00:20 10° SSE
STARLINK-1370 3.5 01:56:59 10° W 01:58:37 18° SW 02:00:20 10° SSE
STARLINK-1418 3.5 01:56:59 10° W 01:58:38 18° SW 02:00:20 10° SSE
STARLINK-1434 3.5 01:56:59 10° W 01:58:38 18° SW 02:00:20 10° SSE
STARLINK-1448 3.5 01:56:56 10° W 01:58:38 19° SW 02:00:24 10° SSE
STARLINK-1449 3.5 01:56:56 10° W 01:58:38 19° SW 02:00:24 10° SSE
STARLINK-1403 3.5 01:57:00 10° W 01:58:38 18° SW 02:00:21 10° SSE
STARLINK-1433 3.5 01:57:01 10° W 01:58:39 18° SW 02:00:22 10° SSE
STARLINK-1411 3.5 01:57:02 10° W 01:58:41 18° SW 02:00:23 10° SSE
STARLINK-1438 3.5 01:57:03 10° W 01:58:42 18° SW 02:00:24 10° SSE
STARLINK-1412 3.5 01:57:04 10° W 01:58:46 19° SW 02:00:32 10° SSE
STARLINK-1278 3.8 01:54:46 11° SW 01:58:49 67° SSE 02:03:04 10° ENE
STARLINK-1304 3.8 01:55:17 11° SW 01:59:07 60° SSE 02:03:13 10° ENE
STARLINK-55 3.9 01:56:29 10° W 01:59:36 46° N 02:02:43 10° ENE
Cosmos 2221 3.5 01:56:16 10° NNW 02:00:04 30° W 02:03:53 10° SSW
NOSS 2-1 (C) 3.2 01:56:56 11° SW 02:00:07 66° NW 02:03:51 10° NE
STARLINK-1280 3.8 01:56:32 11° SW 02:00:39 68° SSE 02:04:54 10° ENE
USA 229 DEB 4.3 01:54:34 10° NW 02:01:15 40° WSW 02:08:12 10° S
USA 229 4.3 01:54:40 10° NW 02:01:22 40° WSW 02:08:20 10° S
STARLINK-1292 3.8 01:57:56 10° W 02:01:37 62° NNW 02:05:20 10° ENE
STARLINK-1338 3.8 01:59:58 10° WNW 02:03:56 74° NNE 02:07:53 10° ESE
SL-24 DEB 4.5 01:59:35 10° N 02:04:13 72° E 02:08:47 10° S
Resurs 1-4 Rocket 3.2 02:00:00 10° N 02:04:41 33° WNW 02:09:23 10° SW
STARLINK-1301 3.9 02:01:07 10° W 02:04:54 60° NNW 02:08:42 10° ENE
NOSS 2-1 (D) 3.4 02:01:41 10° SW 02:05:00 59° NW 02:08:45 10° NE
BREEZE-M DEB (TANK) 1.2 02:05:37 10° W 02:07:52 63° SSW 02:11:05 10° ESE
STARLINK-1289 3.9 02:04:30 10° W 02:08:11 59° NNW 02:11:53 10° ENE
STARLINK-1283 4.1 02:04:32 10° W 02:08:34 60° NNW 02:12:38 10° ENE
STARLINK-29 3.5 02:06:08 10° WNW 02:09:05 35° SW 02:12:01 10° SSE
NOSS 3-1 (A) 4.3 02:03:15 10° NW 02:10:29 50° WSW 02:18:42 10° SSE
STARLINK-28 4.1 02:07:58 10° W 02:11:04 44° N 02:14:10 10° ENE
STARLINK-1303 3.9 02:07:49 10° W 02:11:31 57° NNW 02:15:12 10° ENE
STARLINK-1371 3.7 02:08:08 10° WNW 02:12:06 79° NNE 02:16:02 10° ESE
STARLINK-26 4.1 02:09:10 10° W 02:12:30 47° N 02:15:51 10° ENE
Cosmos 2237 4.4 02:06:59 10° SSW 02:12:40 73° ESE 02:18:25 10° NNE
STARLINK-1286 3.7 02:10:00 10° WSW 02:14:09 74° SSE 02:18:20 10° ENE
STARLINK-1312 4.0 02:11:10 10° W 02:14:51 56° NNW 02:18:32 10° ENE
STARLINK-1341 3.6 02:12:15 10° WNW 02:16:12 82° NNE 02:20:09 10° ESE
Cosmos 1328 Rocket 4.2 02:13:28 10° N 02:17:51 60° ENE 02:22:10 10° SSE
STARLINK-48 3.6 02:14:01 10° WSW 02:17:54 74° NNW 02:21:49 10° ENE
Cosmos 1825 2.2 02:14:16 10° S 02:18:02 88° WNW 02:21:49 10° N
Cosmos 1408 2.8 02:15:06 10° SSW 02:18:44 57° WNW 02:22:23 10° N
STARLINK-1281 3.7 02:14:53 10° WSW 02:19:01 76° SSE 02:23:10 10° ENE
STARLINK-1374 3.6 02:16:20 10° WNW 02:20:18 85° NNE 02:24:16 10° ESE
Cosmos 1727 Rocket 4.3 02:16:15 10° N 02:22:26 73° ENE 02:28:36 10° SSE
Cosmos 1844 Rocket 2.7 02:16:59 10° NNW 02:22:36 75° WSW 02:28:09 10° SSE
Spot 4 Rocket 4.2 02:18:28 10° NNE 02:23:39 78° ESE 02:28:47 10° SSW
STARLINK-1310 3.6 02:19:50 10° WSW 02:23:59 80° SSE 02:28:08 10° ENE
STARLINK-1339 3.5 02:20:30 10° WNW 02:24:28 89° NNE 02:28:25 10° ESE
SL-16 R/B 2.7 02:19:08 10° SW 02:24:38 50° NW 02:30:10 10° NNE
IRS-P3 4.4 02:20:21 10° N 02:25:34 56° WNW 02:30:46 10° SW
STARLINK-80 4.1 02:21:59 10° W 02:25:43 53° N 02:29:27 10° ENE
COSMOS 2428 4.2 02:22:05 10° SSE 02:27:03 32° ESE 02:32:03 10° NE
